This is the latest recevied weather packets stored in our database for station/object KC4KQE. If no packets are shown the sender has not sent any weather packets the latest 10 day(s).
| Time | Temp. | Humidity | Pressure | Rain* | Wind** | Luminosity | Snow |
|---|---|---|---|---|---|---|---|
| 1777914256 | 25.56° C | 30% | 1013.6 hPa | 0 mm | - | 446 W/m² | - |
| 1777913956 | 25.56° C | 31% | 1013.4 hPa | 0 mm | - | 473 W/m² | - |
| 1777913656 | 25° C | 31% | 1013.3 hPa | 0 mm | - | 668 W/m² | - |
| 1777913356 | 25° C | 31% | 1013.6 hPa | 0 mm | - | 773 W/m² | - |
| 1777913056 | 25° C | 32% | 1013.5 hPa | 0 mm | - | 735 W/m² | - |
| 1777912756 | 24.44° C | 35% | 1013.5 hPa | 0 mm | - | 552 W/m² | - |
| 1777912456 | 24.44° C | 34% | 1013.4 hPa | 0 mm | - | 452 W/m² | - |
| 1777912157 | 24.44° C | 35% | 1013.3 hPa | 0 mm | - | 517 W/m² | - |
| 1777911856 | 24.44° C | 36% | 1013.4 hPa | 0 mm | - | 445 W/m² | - |
| 1777911556 | 24.44° C | 36% | 1013.4 hPa | 0 mm | - | 466 W/m² | - |
| 1777911256 | 24.44° C | 37% | 1013.5 hPa | 0 mm | - | 473 W/m² | - |
| 1777910956 | 23.89° C | 37% | 1013.5 hPa | 0 mm | - | 406 W/m² | - |
| 1777910656 | 23.89° C | 38% | 1013.5 hPa | 0 mm | - | 420 W/m² | - |
| 1777910356 | 23.89° C | 37% | 1013.5 hPa | 0 mm | - | 468 W/m² | - |
| 1777910056 | 23.89° C | 39% | 1013.5 hPa | 0 mm | - | 468 W/m² | - |
| 1777909757 | 23.89° C | 39% | 1013.5 hPa | 0 mm | - | 339 W/m² | - |
| 1777909456 | 23.33° C | 40% | 1013.3 hPa | 0 mm | - | 422 W/m² | - |
| 1777909156 | 23.33° C | 40% | 1013.2 hPa | 0 mm | - | 371 W/m² | - |
| 1777908856 | 23.33° C | 40% | 1013.2 hPa | 0 mm | - | 320 W/m² | - |
| 1777908556 | 23.33° C | 40% | 1013.2 hPa | 0 mm | - | 290 W/m² | - |
| 1777908256 | 22.78° C | 40% | 1013.1 hPa | 0 mm | - | 279 W/m² | - |
| 1777907956 | 22.78° C | 40% | 1013 hPa | 0 mm | - | 265 W/m² | - |
| 1777907656 | 22.78° C | 40% | 1013.1 hPa | 0 mm | - | 279 W/m² | - |
| 1777907356 | 22.78° C | 41% | 1013 hPa | 0 mm | - | 253 W/m² | - |
| 1777907056 | 22.78° C | 41% | 1012.9 hPa | 0 mm | - | 227 W/m² | - |
* Rain latest hour (hover to see other rain measurements)
** Current wind speed in m/s (hover to see current wind gust speed)